ラ・サグラ彗星

233P/La Sagra (2010)

English version
Home page
Updated on March 15, 2010

---------------------------------------------------------------------

・ プロフィール

符号 233P/2009 WJ50
発見日 2009年11月19日
発見光度 18.7等
発見者 La Sagra Sky Survey

・ 軌道要素

Epoch 2010 Mar. 25.0 TT = JDT 2455280.5
T 2010 Mar. 12.39525 TT                                 MPC
q   1.7915591            (2000.0)            P               Q
n   0.18645940     Peri.   27.12523     -0.20147737     -0.96111343
a   3.0344492      Node    74.99581     +0.85947689     -0.26595214
e   0.4095933      Incl.   11.27542     +0.46979394     +0.07436689
P   5.29

・ 光度変化

        m1 = 16.5 + 5 logΔ + 10.0 log r

---------------------------------------------------------------------

軌道要素はM.P.E.C. 2010-D02に掲載されたものです。
光度グラフはComet for Windowsで作成したものです。

---------------------------------------------------------------------

Copyright(C) Seiichi Yoshida (comet@aerith.net). All rights reserved.